• In Russia
  • List of Countries
  • For 7 days
  • Water Temperature
  • Satellite Maps
  • Weather Map
  • Weather Widgets
  • user-avatar
    Login

    Hourly Weather Idzhewan

    Today, 24 August, Thursday

    Time Temperature Precipitation Wind Pressure Humidity
    00:00 +21°C° 0 mm 2 mps 693 mmHg 56%
    01:00 +21°C° 0 mm 2 mps 693 mmHg 60%
    02:00 +20°C° 0 mm 2 mps 694 mmHg 64%
    03:00 +20°C° 0 mm 2 mps 694 mmHg 68%
    04:00 +20°C° 0 mm 2 mps 694 mmHg 70%
    05:00 +20°C° 0 mm 2 mps 694 mmHg 72%
    06:00 +20°C° 0 mm 2 mps 694 mmHg 74%
    07:00 +23°C° 0 mm 2 mps 694 mmHg 66%
    08:00 +25°C° 0 mm 2 mps 695 mmHg 58%
    09:00 +27°C° 0 mm 2 mps 695 mmHg 49%
    10:00 +29°C° 0 mm 3 mps 695 mmHg 44%
    11:00 +30°C° 0 mm 3 mps 695 mmHg 39%
    12:00 +33°C° 0 mm 4 mps 695 mmHg 34%
    13:00 +33°C° 0 mm 4 mps 695 mmHg 33%
    14:00 +34°C° 0 mm 4 mps 694 mmHg 31%
    15:00 +34°C° 0 mm 5 mps 694 mmHg 29%
    16:00 +33°C° 0 mm 4 mps 694 mmHg 31%
    17:00 +31°C° 0 mm 3 mps 694 mmHg 33%
    18:00 +29°C° 0 mm 3 mps 694 mmHg 34%
    19:00 +27°C° 0 mm 2 mps 694 mmHg 37%
    20:00 +25°C° 0 mm 2 mps 695 mmHg 39%
    21:00 +23°C° 0 mm 2 mps 695 mmHg 41%
    22:00 +23°C° 0 mm 2 mps 695 mmHg 42%
    23:00 +21°C° 0 mm 2 mps 695 mmHg 43%

    Tomorrow, 25 August, Friday

    Time Temperature Precipitation Wind Pressure Humidity
    00:00 +20°C° 0 mm 2 mps 695 mmHg 45%
    01:00 +20°C° 0 mm 2 mps 695 mmHg 46%
    02:00 +19°C° 0 mm 2 mps 695 mmHg 48%
    03:00 +19°C° 0 mm 2 mps 695 mmHg 49%
    04:00 +19°C° 0 mm 2 mps 695 mmHg 50%
    05:00 +19°C° 0 mm 2 mps 695 mmHg 51%
    06:00 +18°C° 0 mm 2 mps 695 mmHg 51%
    07:00 +21°C° 0 mm 2 mps 696 mmHg 45%
    08:00 +24°C° 0 mm 2 mps 696 mmHg 39%
    09:00 +27°C° 0 mm 2 mps 696 mmHg 33%
    10:00 +28°C° 0 mm 2 mps 696 mmHg 30%
    11:00 +29°C° 0 mm 3 mps 696 mmHg 27%
    12:00 +31°C° 0 mm 3 mps 695 mmHg 24%
    13:00 +32°C° 0 mm 4 mps 695 mmHg 23%
    14:00 +33°C° 0 mm 4 mps 695 mmHg 22%
    15:00 +33°C° 0 mm 4 mps 694 mmHg 21%
    16:00 +32°C° 0 mm 4 mps 694 mmHg 23%
    17:00 +29°C° 0 mm 3 mps 694 mmHg 25%
    18:00 +28°C° 0 mm 2 mps 694 mmHg 26%
    19:00 +26°C° 0 mm 2 mps 695 mmHg 27%
    20:00 +24°C° 0 mm 2 mps 695 mmHg 28%
    21:00 +21°C° 0 mm 2 mps 695 mmHg 29%
    22:00 +21°C° 0 mm 2 mps 695 mmHg 29%
    23:00 +20°C° 0 mm 2 mps 695 mmHg 30%

    Day after tomorrow, 26 August, Saturday

    Time Temperature Precipitation Wind Pressure Humidity
    00:00 +20°C° 0 mm 2 mps 695 mmHg 30%
    01:00 +19°C° 0 mm 2 mps 695 mmHg 32%
    02:00 +18°C° 0 mm 2 mps 695 mmHg 33%
    03:00 +18°C° 0 mm 2 mps 695 mmHg 35%
    04:00 +18°C° 0 mm 2 mps 695 mmHg 37%
    05:00 +18°C° 0 mm 2 mps 695 mmHg 39%
    06:00 +17°C° 0 mm 2 mps 695 mmHg 41%
    07:00 +20°C° 0 mm 2 mps 695 mmHg 37%
    08:00 +23°C° 0 mm 2 mps 696 mmHg 33%
    09:00 +26°C° 0 mm 2 mps 696 mmHg 29%
    10:00 +27°C° 0 mm 2 mps 695 mmHg 27%
    11:00 +29°C° 0 mm 3 mps 695 mmHg 25%
    12:00 +30°C° 0 mm 3 mps 695 mmHg 23%
    13:00 +30°C° 0 mm 3 mps 695 mmHg 23%
    14:00 +32°C° 0 mm 4 mps 694 mmHg 22%
    15:00 +32°C° 0 mm 4 mps 694 mmHg 22%
    16:00 +30°C° 0 mm 3 mps 694 mmHg 25%
    17:00 +29°C° 0 mm 3 mps 694 mmHg 27%
    18:00 +28°C° 0 mm 2 mps 694 mmHg 30%
    19:00 +26°C° 0 mm 2 mps 694 mmHg 32%
    20:00 +24°C° 0 mm 2 mps 694 mmHg 35%
    21:00 +22°C° 0 mm 1 mps 695 mmHg 37%
    22:00 +20°C° 0 mm 2 mps 694 mmHg 38%
    23:00 +20°C° 0 mm 2 mps 694 mmHg 39%

    27 August, Sunday

    Time Temperature Precipitation Wind Pressure Humidity
    00:00 +19°C° 0 mm 2 mps 694 mmHg 40%
    01:00 +19°C° 0 mm 2 mps 694 mmHg 42%
    02:00 +18°C° 0 mm 2 mps 694 mmHg 44%
    03:00 +18°C° 0 mm 2 mps 694 mmHg 46%
    04:00 +18°C° 0 mm 2 mps 694 mmHg 45%
    05:00 +18°C° 0 mm 2 mps 694 mmHg 45%
    06:00 +17°C° 0 mm 2 mps 694 mmHg 45%
    07:00 +20°C° 0 mm 2 mps 694 mmHg 40%
    08:00 +23°C° 0 mm 2 mps 694 mmHg 35%
    09:00 +26°C° 0 mm 2 mps 695 mmHg 30%
    10:00 +27°C° 0 mm 2 mps 694 mmHg 29%
    11:00 +29°C° 0 mm 3 mps 694 mmHg 27%
    12:00 +30°C° 0 mm 3 mps 694 mmHg 25%
    13:00 +30°C° 0 mm 3 mps 693 mmHg 26%
    14:00 +32°C° 0 mm 4 mps 693 mmHg 26%
    15:00 +32°C° 0 mm 4 mps 693 mmHg 26%
    16:00 +30°C° 0 mm 3 mps 693 mmHg 29%
    17:00 +29°C° 0 mm 3 mps 693 mmHg 33%
    18:00 +28°C° 0 mm 2 mps 693 mmHg 37%
    19:00 +26°C° 0 mm 2 mps 693 mmHg 41%
    20:00 +24°C° 0 mm 2 mps 693 mmHg 45%
    21:00 +22°C° 0 mm 1 mps 694 mmHg 49%
    22:00 +21°C° 0 mm 1 mps 694 mmHg 50%
    23:00 +21°C° 0 mm 1 mps 694 mmHg 52%

    28 August, Monday

    Time Temperature Precipitation Wind Pressure Humidity
    00:00 +20°C° 0 mm 1 mps 694 mmHg 53%
    01:00 +20°C° 0 mm 1 mps 693 mmHg 55%
    02:00 +19°C° 0 mm 1 mps 693 mmHg 58%
    03:00 +19°C° 0 mm 1 mps 693 mmHg 60%
    04:00 +19°C° 0 mm 1 mps 693 mmHg 60%
    05:00 +19°C° 0 mm 1 mps 693 mmHg 59%
    06:00 +18°C° 0 mm 1 mps 693 mmHg 59%
    07:00 +20°C° 0 mm 2 mps 694 mmHg 52%
    08:00 +23°C° 0 mm 2 mps 694 mmHg 45%
    09:00 +26°C° 0 mm 2 mps 694 mmHg 38%
    10:00 +27°C° 0 mm 2 mps 694 mmHg 35%
    11:00 +29°C° 0 mm 3 mps 693 mmHg 33%
    12:00 +30°C° 0 mm 3 mps 693 mmHg 30%
    13:00 +31°C° 0 mm 3 mps 693 mmHg 29%
    14:00 +31°C° 0 mm 3 mps 692 mmHg 29%
    15:00 +33°C° 0 mm 4 mps 692 mmHg 29%
    16:00 +30°C° 0 mm 3 mps 692 mmHg 32%
    17:00 +29°C° 0 mm 3 mps 692 mmHg 36%
    18:00 +28°C° 0 mm 2 mps 692 mmHg 39%
    19:00 +26°C° 0 mm 2 mps 692 mmHg 44%
    20:00 +24°C° 0 mm 2 mps 692 mmHg 48%
    21:00 +22°C° 0 mm 1 mps 692 mmHg 52%
    22:00 +22°C° 0 mm 1 mps 692 mmHg 53%
    23:00 +21°C° 0 mm 1 mps 692 mmHg 54%

    29 August, Tuesday

    Time Temperature Precipitation Wind Pressure Humidity
    00:00 +21°C° 0 mm 1 mps 692 mmHg 55%
    01:00 +20°C° 0 mm 1 mps 692 mmHg 57%
    02:00 +20°C° 0 mm 1 mps 692 mmHg 59%
    03:00 +19°C° 0 mm 1 mps 692 mmHg 61%
    04:00 +19°C° 0 mm 1 mps 692 mmHg 61%
    05:00 +19°C° 0 mm 1 mps 692 mmHg 62%
    06:00 +19°C° 0 mm 1 mps 692 mmHg 62%
    07:00 +22°C° 0 mm 1 mps 692 mmHg 54%
    08:00 +25°C° 0 mm 1 mps 692 mmHg 45%
    09:00 +27°C° 0 mm 1 mps 692 mmHg 37%
    10:00 +29°C° 0 mm 2 mps 692 mmHg 34%
    11:00 +30°C° 0 mm 2 mps 692 mmHg 31%
    12:00 +32°C° 0 mm 2 mps 692 mmHg 28%
    13:00 +33°C° 0 mm 3 mps 691 mmHg 27%
    14:00 +34°C° 0 mm 3 mps 691 mmHg 27%
    15:00 +34°C° 0 mm 3 mps 690 mmHg 26%
    16:00 +33°C° 0 mm 3 mps 690 mmHg 30%
    17:00 +30°C° 0 mm 2 mps 690 mmHg 34%
    18:00 +29°C° 0 mm 2 mps 690 mmHg 38%
    19:00 +27°C° 0 mm 2 mps 690 mmHg 44%
    20:00 +25°C° 0 mm 2 mps 690 mmHg 49%
    21:00 +23°C° 0 mm 2 mps 691 mmHg 54%
    22:00 +23°C° 0 mm 2 mps 690 mmHg 56%
    23:00 +21°C° 0 mm 2 mps 690 mmHg 57%
    Show more